Location: Most
(50.5133°N, 13.6207°E)
Time: 19:45:40
(UTC+02:00)

ISS - Pass Details

Date: 19 May 2019
Orbit: 407 x 410 km, 51.6° (Epoch: 23 May)

Event Time Altitude Azimuth Distance (km) Brightness Sun altitude
Rises 22:01:02 0° 223° (SW) 2,323 0.0 -9.2°
Reaches altitude 10° 22:03:14 10° 213° (SSW) 1,466 -1.2 -9.4°
Maximum altitude 22:06:12 31° 149° (SSE) 737 -3.1 -9.7°
Drops below altitude 10° 22:09:10 10° 84° (E) 1,475 -1.3 -10.0°
Sets 22:11:23 0° 74° (ENE) 2,339 -0.2 -10.2°
